Regional Weather Roundup
Issued by NWS Little Rock, AR

Home | Current Version | Previous Version | Text Only | Print | Product List | Glossary Off
Versions: 1 2 3 4 5 6 7 8 9 10 11 12 13 14 15 16 17 18 19 20 21 22 23 24 25 26 27 28 29 30 31 32 33 34 35 36 37 38 39 40 41 42 43 44 45 46 47 48 49 50

000
ASUS44 KLZK 010205
RWRLZK

WEATHER ROUNDUP FOR ARKANSAS
NATIONAL WEATHER SERVICE LITTLE ROCK AR
800 PM CST SAT FEB 28 2015

NOTE: "FAIR" INDICATES FEW OR NO CLOUDS BELOW 12,000 FEET WITH NO
SIGNIFICANT WEATHER AND/OR OBSTRUCTIONS TO VISIBILITY.

ARZ001-003-010-029-010300-
NORTHWEST ARKANSAS

CITY           SKY/WX    TMP DP  RH WIND       PRES   REMARKS
FAYETTEVILLE   CLOUDY    29  29 100 MISG      30.33S FOG
FORT SMITH     FRZ RAIN  30  27  88 E7        30.39R FOG     WCI  23
HARRISON       CLOUDY    24  24 100 SE10      30.36S FOG     WCI  14
BENTONVILLE    CLOUDY    27  25  93 SE8       30.34S WCI  18
ROGERS         LGT SNOW  25  24  96 E9        30.34S FOG     WCI  15
SILOAM SPGS    CLOUDY    28  23  80 CALM      30.35R
HIGHFILL       CLOUDY    27  26  96 E6        30.33S FOG     WCI  20
SPRINGDALE     CLOUDY    28  27  93 E6        30.35S FOG     WCI  22
$$

ARZ004-005-016-010300-
NORTH CENTRAL ARKANSAS

CITY           SKY/WX    TMP DP  RH WIND       PRES   REMARKS
BATESVILLE     CLOUDY    28  21  74 N3        30.44F
FLIPPIN        CLOUDY    27  21  80 CALM      30.40F
MTN HOME       FRZ RAIN  26  25  96 E8        30.40S FOG     WCI  18
$$

ARZ040-041-010300-
WEST CENTRAL ARKANSAS

CITY           SKY/WX    TMP DP  RH WIND       PRES   REMARKS
MENA           CLOUDY    34  32  93 E5        30.34R WCI  30
MOUNT IDA      LGT RAIN  33  29  85 NW3       30.34R
$$

ARZ009-017-025-026-028-010300-
NORTHEAST ARKANSAS

CITY           SKY/WX    TMP DP  RH WIND       PRES   REMARKS
CORNING        CLOUDY    30  23  74 N8        30.47S WCI  23
JONESBORO      CLOUDY    30  23  75 N6        30.44R WCI  24
NEWPORT        CLOUDY    30  24  78 N13       30.46S WCI  20
WALNUT RIDGE   CLOUDY    28  21  74 N9        30.47R WCI  20
BLYTHEVILLE    CLOUDY    33  26  75 N15       30.43R WCI  23
$$

ARZ022-023-033-042-044-010300-
CENTRAL ARKANSAS

CITY           SKY/WX    TMP DP  RH WIND       PRES   REMARKS
LITTLE ROCK    CLOUDY    35  23  61 NE9       30.40S WCI  28
N LITTLE ROCK  CLOUDY    33  27  77 NE9       30.40S WCI  26
JACKSONVILLE   CLOUDY    34  23  65 NE6       30.40R WCI  29
SEARCY         FLURRIES  31  24  75 NE10      30.43F WCI  22
HOT SPRINGS    CLOUDY    37  25  61 E6        30.36S
RUSSELLVILLE   CLOUDY    33  28  81 E5        30.39S HAZE    WCI  29
CLINTON        LGT RAIN  32  28  86 CALM      30.42F
$$

ARZ036-010300-
EAST ARKANSAS

CITY           SKY/WX    TMP DP  RH WIND       PRES   REMARKS
WEST MEMPHIS   CLOUDY    34  28  79 VRB7      30.41R WCI  28
$$

ARZ050-053-066-070-073-010300-
SOUTHWEST ARKANSAS

CITY           SKY/WX    TMP DP  RH WIND       PRES   REMARKS
ARKADELPHIA    FAIR      37  27  68 NE6       30.38S
CAMDEN         CLOUDY    37  25  60 MISG      30.37R
TEXARKANA      CLOUDY    38  28  67 NE6       30.33S
EL DORADO      CLOUDY    44  32  62 N6        30.34R
DE QUEEN       CLOUDY    34  31  88 N3        30.34S FOG
$$

ARZ056-057-069-010300-
SOUTHEAST ARKANSAS

CITY           SKY/WX    TMP DP  RH WIND       PRES   REMARKS
PINE BLUFF     CLOUDY    36  28  73 N12       30.38F
STUTTGART      CLOUDY    36  25  64 N12       30.40F
MONTICELLO     CLOUDY    41  30  65 N6        30.36S

$$




USA.gov is the U.S. government's official web portal to all federal, state and local government web resources and services.